météowapi.be MeteoWapi, Belgique

50° 38.40' N | 003° 22.32' E | 21 meter | Voir la carte

Historique Wunderground.com

22-jan-2020 14:30

   Pas de vigilance météorologique particulière.   -   Il n'y a aucun avertissement

Historique Wunderground.com


Notice: Undefined variable: extra in /home/u320732143/public_html/wuhistory/startWUhistory.php on line 86

Select another period ( hide this area )

Units Period Custom range Directly to
Metric English Both
Daily Weekly Monthly Yearly
use both date-selectors for a custom range
previous Day
With this date

WeatherUnderground graphs for this period ( click here ) Loading the graph can take up to a minute!


Daily Summary for Monday Aug 3 2020
Time Temp. ( °C ) Dew pt. ( °C ) Wind ( km/h ) From Gust ( km/h ) Pressure ( hPa ) Humid.( % ) Rainrate ( cm )
High21,4 15,2 0,0 ( 0/0 ) 0,0 1011,7 81 -
Average14,1 9,6 0,0 Calm #139/139 0,0 1010,2 75 -
Low11,7 7,3 -   0,0 1009,0 63 -
Daily Tabular details for Monday Aug 3 2020
Time Temp. ( °C ) Dew pt. ( °C ) Wind ( km/h ) From Gust ( km/h ) Pressure ( hPa ) Humid.( % ) Rainrate ( cm )
00:00 15,3 8,3   Calm   1011,7 63 -
00:05 15,2 8,2   Calm   1011,7 63 -
00:10 15,2 8,2   Calm   1011,7 63 -
00:15 15,0 8,2   Calm   1011,7 64 -
00:20 14,8 8,1   Calm   1011,7 64 -
00:25 14,6 8,1   Calm   1011,6 65 -
00:30 14,6 8,1   Calm   1011,6 65 -
00:35 14,4 7,9   Calm   1011,6 65 -
00:40 14,3 7,9   Calm   1011,6 66 -
00:45 14,2 7,9   Calm   1011,6 66 -
00:50 14,1 7,8   Calm   1011,6 66 -
00:55 13,9 7,8   Calm   1011,6 67 -
01:00 13,7 7,7   Calm   1011,5 67 -
01:05 13,6 7,6   Calm   1011,5 67 -
01:10 13,4 7,7   Calm   1011,5 68 -
01:15 13,3 7,6   Calm   1011,5 68 -
01:20 13,3 7,6   Calm   1011,4 68 -
01:25 13,1 7,6   Calm   1011,4 69 -
01:30 13,1 7,5   Calm   1011,4 69 -
01:35 12,9 7,5   Calm   1011,4 70 -
01:40 12,9 7,7   Calm   1011,1 70 -
01:45 12,8 7,7   Calm   1011,1 71 -
01:50 12,7 7,6   Calm   1011,1 71 -
01:55 12,6 7,5   Calm   1011,1 71 -
02:00 12,5 7,6   Calm   1011,0 72 -
02:05 12,3 7,4   Calm   1010,9 72 -
02:10 12,3 7,4   Calm   1010,9 72 -
02:15 12,2 7,4   Calm   1010,9 73 -
02:20 12,1 7,4   Calm   1010,8 73 -
02:25 12,1 7,3   Calm   1010,8 73 -
02:30 12,0 7,3   Calm   1010,8 73 -
02:35 12,0 7,5   Calm   1010,8 74 -
02:40 11,9 7,4   Calm   1010,7 74 -
02:45 11,8 7,3   Calm   1010,6 74 -
02:50 11,8 7,5   Calm   1010,6 75 -
02:55 11,8 7,5   Calm   1010,6 75 -
03:00 11,8 7,4   Calm   1010,7 75 -
03:05 11,7 7,4   Calm   1010,7 75 -
03:10 11,7 7,4   Calm   1010,7 75 -
03:15 11,8 7,6   Calm   1010,7 76 -
03:20 11,8 7,7   Calm   1011,0 76 -
03:25 11,8 7,7   Calm   1011,1 76 -
03:30 11,8 7,7   Calm   1011,1 76 -
03:35 11,8 7,8   Calm   1011,1 76 -
03:40 11,8 7,9   Calm   1010,6 77 -
03:45 11,9 8,0   Calm   1010,4 77 -
03:50 11,9 8,0   Calm   1010,4 77 -
03:55 12,0 8,1   Calm   1010,4 77 -
04:00 12,0 8,1   Calm   1010,4 77 -
04:05 12,0 8,1   Calm   1010,4 77 -
04:10 12,1 8,1   Calm   1010,4 77 -
04:15 12,1 8,2   Calm   1010,4 77 -
04:20 12,3 8,5   Calm   1010,4 78 -
04:25 12,5 8,8   Calm   1010,4 78 -
04:30 12,7 9,0   Calm   1010,4 78 -
04:35 12,9 9,1   Calm   1010,4 78 -
04:40 12,9 9,2   Calm   1010,3 78 -
04:45 13,0 9,1   Calm   1010,3 77 -
04:50 13,0 9,1   Calm   1010,3 77 -
04:55 13,0 9,1   Calm   1010,3 77 -
05:00 13,0 9,1   Calm   1010,0 77 -
05:05 12,9 9,1   Calm   1009,9 78 -
05:10 12,9 9,2   Calm   1009,9 78 -
05:15 12,9 9,2   Calm   1009,9 78 -
05:20 12,9 9,2   Calm   1009,8 78 -
05:25 12,9 9,1   Calm   1009,8 78 -
05:30 12,8 9,1   Calm   1009,8 78 -
05:35 12,7 9,0   Calm   1009,8 78 -
05:40 12,7 8,9   Calm   1009,8 78 -
05:45 12,7 8,9   Calm   1009,8 78 -
05:50 12,6 8,9   Calm   1009,8 78 -
05:55 12,6 8,9   Calm   1009,8 78 -
06:00 12,6 8,9   Calm   1009,6 78 -
06:05 12,6 8,9   Calm   1009,6 78 -
06:10 12,6 8,9   Calm   1009,6 78 -
06:15 12,5 8,8   Calm   1009,6 78 -
06:20 12,4 8,8   Calm   1009,6 78 -
06:25 12,4 8,8   Calm   1009,6 79 -
06:30 12,4 8,8   Calm   1009,6 79 -
06:35 12,4 8,8   Calm   1009,6 79 -
06:40 12,3 8,8   Calm   1009,6 79 -
06:45 12,3 8,8   Calm   1009,6 79 -
06:50 12,3 8,8   Calm   1009,6 79 -
06:55 12,3 8,8   Calm   1009,6 79 -
07:00 12,3 8,8   Calm   1009,5 79 -
07:05 12,4 8,8   Calm   1009,5 79 -
07:10 12,4 8,9   Calm   1009,5 79 -
07:15 12,5 9,1   Calm   1009,5 80 -
07:20 12,5 9,2   Calm   1009,6 80 -
07:25 12,6 9,2   Calm   1009,6 80 -
07:30 12,5 9,2   Calm   1009,6 80 -
07:35 12,6 9,2   Calm   1009,6 80 -
07:40 12,6 9,2   Calm   1009,6 80 -
07:45 12,6 9,3   Calm   1009,6 80 -
07:50 12,7 9,5   Calm   1009,6 81 -
07:55 12,8 9,7   Calm   1009,6 81 -
08:00 12,9 9,7   Calm   1009,7 81 -
08:05 13,0 9,7   Calm   1009,8 80 -
08:10 13,2 9,8   Calm   1009,8 80 -
08:15 13,4 10,0   Calm   1009,8 80 -
08:20 13,6 10,2   Calm   1009,8 80 -
08:25 13,7 10,3   Calm   1009,8 80 -
08:30 13,8 10,4   Calm   1009,8 80 -
08:35 13,9 10,5   Calm   1009,8 80 -
08:40 14,1 10,5   Calm   1009,7 79 -
08:45 14,3 10,7   Calm   1009,7 79 -
08:50 14,4 10,8   Calm   1009,7 79 -
08:55 14,5 10,9   Calm   1009,7 79 -
09:00 14,7 11,1   Calm   1009,6 79 -
09:05 14,8 11,2   Calm   1009,5 79 -
09:10 14,9 11,3   Calm   1009,5 79 -
09:15 15,2 11,6   Calm   1009,5 79 -
09:20 15,4 11,8   Calm   1009,5 79 -
09:25 15,7 12,1   Calm   1009,5 79 -
09:30 16,1 12,3   Calm   1009,5 79 -
09:35 16,6 12,7   Calm   1009,5 78 -
09:40 16,7 12,8   Calm   1009,4 78 -
09:45 16,8 12,7   Calm   1009,3 77 -
09:50 17,1 12,9   Calm   1009,3 77 -
09:55 17,2 13,0   Calm   1009,3 76 -
10:00 17,2 13,0   Calm   1009,4 76 -
10:05 17,4 13,2   Calm   1009,4 76 -
10:10 17,6 13,3   Calm   1009,4 76 -
10:15 18,1 13,6   Calm   1009,4 75 -
10:20 18,4 13,8   Calm   1009,4 75 -
10:25 18,7 14,0   Calm   1009,4 74 -
10:30 19,3 14,4   Calm   1009,4 74 -
10:35 19,8 14,8   Calm   1009,4 73 -
10:40 20,1 14,7   Calm   1009,3 71 -
10:45 20,5 15,0   Calm   1009,3 71 -
10:50 21,0 15,1   Calm   1009,3 69 -
10:55 21,2 15,2   Calm   1009,3 69 -
11:00 21,3 14,9   Calm   1009,0 67 -
11:05 21,2 14,7   Calm   1009,0 66 -
11:10 21,2 14,6   Calm   1009,0 66 -
11:15 21,2 14,4   Calm   1009,0 65 -
11:20 21,1 14,2   Calm   1009,0 65 -
11:25 21,2 14,1   Calm   1009,1 64 -
11:30 21,4 14,2   Calm   1009,1 64 -
Daily Summary for Monday Aug 3 2020
Time Temp. ( °C ) Dew pt. ( °C ) Wind ( km/h ) From Gust ( km/h ) Pressure ( hPa ) Humid.( % ) Rainrate ( cm )
High21,4 15,2 0,0 ( 0/0 ) 0,0 1011,7 81 -
Average14,1 9,6 0,0 Calm #139/139 0,0 1010,2 75 -
Low11,7 7,3 -   0,0 1009,0 63 -
Daily Tabular details for Monday Aug 3 2020
Time Temp. ( °C ) Dew pt. ( °C ) Wind ( km/h ) From Gust ( km/h ) Pressure ( hPa ) Humid.( % ) Rainrate ( cm )
00:00 15,3 8,3   Calm   1011,7 63 -
00:05 15,2 8,2   Calm   1011,7 63 -
00:10 15,2 8,2   Calm   1011,7 63 -
00:15 15,0 8,2   Calm   1011,7 64 -
00:20 14,8 8,1   Calm   1011,7 64 -
00:25 14,6 8,1   Calm   1011,6 65 -
00:30 14,6 8,1   Calm   1011,6 65 -
00:35 14,4 7,9   Calm   1011,6 65 -
00:40 14,3 7,9   Calm   1011,6 66 -
00:45 14,2 7,9   Calm   1011,6 66 -
00:50 14,1 7,8   Calm   1011,6 66 -
00:55 13,9 7,8   Calm   1011,6 67 -
01:00 13,7 7,7   Calm   1011,5 67 -
01:05 13,6 7,6   Calm   1011,5 67 -
01:10 13,4 7,7   Calm   1011,5 68 -
01:15 13,3 7,6   Calm   1011,5 68 -
01:20 13,3 7,6   Calm   1011,4 68 -
01:25 13,1 7,6   Calm   1011,4 69 -
01:30 13,1 7,5   Calm   1011,4 69 -
01:35 12,9 7,5   Calm   1011,4 70 -
01:40 12,9 7,7   Calm   1011,1 70 -
01:45 12,8 7,7   Calm   1011,1 71 -
01:50 12,7 7,6   Calm   1011,1 71 -
01:55 12,6 7,5   Calm   1011,1 71 -
02:00 12,5 7,6   Calm   1011,0 72 -
02:05 12,3 7,4   Calm   1010,9 72 -
02:10 12,3 7,4   Calm   1010,9 72 -
02:15 12,2 7,4   Calm   1010,9 73 -
02:20 12,1 7,4   Calm   1010,8 73 -
02:25 12,1 7,3   Calm   1010,8 73 -
02:30 12,0 7,3   Calm   1010,8 73 -
02:35 12,0 7,5   Calm   1010,8 74 -
02:40 11,9 7,4   Calm   1010,7 74 -
02:45 11,8 7,3   Calm   1010,6 74 -
02:50 11,8 7,5   Calm   1010,6 75 -
02:55 11,8 7,5   Calm   1010,6 75 -
03:00 11,8 7,4   Calm   1010,7 75 -
03:05 11,7 7,4   Calm   1010,7 75 -
03:10 11,7 7,4   Calm   1010,7 75 -
03:15 11,8 7,6   Calm   1010,7 76 -
03:20 11,8 7,7   Calm   1011,0 76 -
03:25 11,8 7,7   Calm   1011,1 76 -
03:30 11,8 7,7   Calm   1011,1 76 -
03:35 11,8 7,8   Calm   1011,1 76 -
03:40 11,8 7,9   Calm   1010,6 77 -
03:45 11,9 8,0   Calm   1010,4 77 -
03:50 11,9 8,0   Calm   1010,4 77 -
03:55 12,0 8,1   Calm   1010,4 77 -
04:00 12,0 8,1   Calm   1010,4 77 -
04:05 12,0 8,1   Calm   1010,4 77 -
04:10 12,1 8,1   Calm   1010,4 77 -
04:15 12,1 8,2   Calm   1010,4 77 -
04:20 12,3 8,5   Calm   1010,4 78 -
04:25 12,5 8,8   Calm   1010,4 78 -
04:30 12,7 9,0   Calm   1010,4 78 -
04:35 12,9 9,1   Calm   1010,4 78 -
04:40 12,9 9,2   Calm   1010,3 78 -
04:45 13,0 9,1   Calm   1010,3 77 -
04:50 13,0 9,1   Calm   1010,3 77 -
04:55 13,0 9,1   Calm   1010,3 77 -
05:00 13,0 9,1   Calm   1010,0 77 -
05:05 12,9 9,1   Calm   1009,9 78 -
05:10 12,9 9,2   Calm   1009,9 78 -
05:15 12,9 9,2   Calm   1009,9 78 -
05:20 12,9 9,2   Calm   1009,8 78 -
05:25 12,9 9,1   Calm   1009,8 78 -
05:30 12,8 9,1   Calm   1009,8 78 -
05:35 12,7 9,0   Calm   1009,8 78 -
05:40 12,7 8,9   Calm   1009,8 78 -
05:45 12,7 8,9   Calm   1009,8 78 -
05:50 12,6 8,9   Calm   1009,8 78 -
05:55 12,6 8,9   Calm   1009,8 78 -
06:00 12,6 8,9   Calm   1009,6 78 -
06:05 12,6 8,9   Calm   1009,6 78 -
06:10 12,6 8,9   Calm   1009,6 78 -
06:15 12,5 8,8   Calm   1009,6 78 -
06:20 12,4 8,8   Calm   1009,6 78 -
06:25 12,4 8,8   Calm   1009,6 79 -
06:30 12,4 8,8   Calm   1009,6 79 -
06:35 12,4 8,8   Calm   1009,6 79 -
06:40 12,3 8,8   Calm   1009,6 79 -
06:45 12,3 8,8   Calm   1009,6 79 -
06:50 12,3 8,8   Calm   1009,6 79 -
06:55 12,3 8,8   Calm   1009,6 79 -
07:00 12,3 8,8   Calm   1009,5 79 -
07:05 12,4 8,8   Calm   1009,5 79 -
07:10 12,4 8,9   Calm   1009,5 79 -
07:15 12,5 9,1   Calm   1009,5 80 -
07:20 12,5 9,2   Calm   1009,6 80 -
07:25 12,6 9,2   Calm   1009,6 80 -
07:30 12,5 9,2   Calm   1009,6 80 -
07:35 12,6 9,2   Calm   1009,6 80 -
07:40 12,6 9,2   Calm   1009,6 80 -
07:45 12,6 9,3   Calm   1009,6 80 -
07:50 12,7 9,5   Calm   1009,6 81 -
07:55 12,8 9,7   Calm   1009,6 81 -
08:00 12,9 9,7   Calm   1009,7 81 -
08:05 13,0 9,7   Calm   1009,8 80 -
08:10 13,2 9,8   Calm   1009,8 80 -
08:15 13,4 10,0   Calm   1009,8 80 -
08:20 13,6 10,2   Calm   1009,8 80 -
08:25 13,7 10,3   Calm   1009,8 80 -
08:30 13,8 10,4   Calm   1009,8 80 -
08:35 13,9 10,5   Calm   1009,8 80 -
08:40 14,1 10,5   Calm   1009,7 79 -
08:45 14,3 10,7   Calm   1009,7 79 -
08:50 14,4 10,8   Calm   1009,7 79 -
08:55 14,5 10,9   Calm   1009,7 79 -
09:00 14,7 11,1   Calm   1009,6 79 -
09:05 14,8 11,2   Calm   1009,5 79 -
09:10 14,9 11,3   Calm   1009,5 79 -
09:15 15,2 11,6   Calm   1009,5 79 -
09:20 15,4 11,8   Calm   1009,5 79 -
09:25 15,7 12,1   Calm   1009,5 79 -
09:30 16,1 12,3   Calm   1009,5 79 -
09:35 16,6 12,7   Calm   1009,5 78 -
09:40 16,7 12,8   Calm   1009,4 78 -
09:45 16,8 12,7   Calm   1009,3 77 -
09:50 17,1 12,9   Calm   1009,3 77 -
09:55 17,2 13,0   Calm   1009,3 76 -
10:00 17,2 13,0   Calm   1009,4 76 -
10:05 17,4 13,2   Calm   1009,4 76 -
10:10 17,6 13,3   Calm   1009,4 76 -
10:15 18,1 13,6   Calm   1009,4 75 -
10:20 18,4 13,8   Calm   1009,4 75 -
10:25 18,7 14,0   Calm   1009,4 74 -
10:30 19,3 14,4   Calm   1009,4 74 -
10:35 19,8 14,8   Calm   1009,4 73 -
10:40 20,1 14,7   Calm   1009,3 71 -
10:45 20,5 15,0   Calm   1009,3 71 -
10:50 21,0 15,1   Calm   1009,3 69 -
10:55 21,2 15,2   Calm   1009,3 69 -
11:00 21,3 14,9   Calm   1009,0 67 -
11:05 21,2 14,7   Calm   1009,0 66 -
11:10 21,2 14,6   Calm   1009,0 66 -
11:15 21,2 14,4   Calm   1009,0 65 -
11:20 21,1 14,2   Calm   1009,0 65 -
11:25 21,2 14,1   Calm   1009,1 64 -
11:30 21,4 14,2   Calm   1009,1 64 -

Download your copy of this data-set  here

Our weather-data as stored at Weather Underground. Original script by Jim McMurry. Rewritten for template use Leuven-Template